Wind_Speed
23 22 22 22 21 21 21 22 21 21 20 18 19 18 17 19 20 19 18 18 17 16 16 15 15 14 14 15 15 15 15 15 14 14 14 15 15 15 16 15 15 15 15 16
24 24 22 22 22 22 22 22 22 22 19 18 20 20 19 20 19 19 18 18 18 17 17 17 17 15 15 16 17 16 16 15 15 15 15 15 15 16 16 16 16 16 16 16
25 23 23 25 24 24 23 23 24 23 20 20 21 21 20 20 18 19 20 19 19 19 19 18 18 17 16 17 17 17 16 16 16 16 16 16 16 16 17 17 18 18 18 17
25 25 26 26 24 24 23 23 24 23 21 20 20 19 19 20 19 19 19 19 19 19 19 19 17 17 18 18 18 18 18 18 17 17 17 17 17 18 18 18 18 19 19 19
25 25 26 26 24 24 24 25 24 24 23 21 19 21 21 21 20 20 20 20 20 20 21 20 19 18 18 18 18 18 18 18 18 17 17 17 17 17 17 18 18 18 19 19
24 24 25 26 24 23 23 25 25 23 22 23 22 22 21 21 21 20 20 20 20 20 20 20 20 19 18 19 18 18 18 18 18 18 18 18 18 18 18 18 18 19 19 19
22 24 25 25 24 23 23 24 23 23 23 23 23 23 22 22 22 21 20 19 19 19 19 19 19 19 18 19 19 18 18 18 19 18 19 19 19 19 19 19 19 19 19 20
22 24 25 24 24 24 25 24 23 24 24 25 24 24 24 23 23 22 21 21 20 20 20 19 19 19 19 19 19 19 19 19 19 20 20 19 19 19 19 19 20 20 20 20
24 25 24 23 24 24 24 25 25 24 24 25 25 25 24 24 23 23 23 23 22 21 21 21 21 20 20 20 20 20 20 20 20 20 20 20 20 20 20 20 20 21 21 21
26 26 24 24 24 26 26 25 25 26 25 25 26 26 25 24 24 25 24 24 23 23 22 22 21 21 21 21 21 21 21 21 21 20 20 20 20 20 21 21 21 21 21 21
26 25 25 25 25 25 24 25 25 25 26 26 26 26 25 25 24 25 25 25 24 23 23 22 22 22 22 21 21 21 21 21 21 21 21 22 21 22 22 22 22 22 22 22
24 25 24 22 23 23 23 23 24 25 25 26 26 25 25 25 24 25 25 24 23 23 22 22 22 22 22 22 21 21 22 22 22 22 22 22 22 22 22 22 23 24 24 24
23 24 23 22 22 22 22 22 23 24 24 25 25 24 24 24 24 24 24 24 23 23 23 22 22 22 22 23 22 22 22 22 22 23 23 23 23 22 22 22 23 23 23 24
21 21 22 22 23 23 22 22 22 22 23 23 22 23 23 23 23 24 23 23 23 23 23 23 23 23 23 23 23 23 23 22 23 23 23 23 23 23 22 22 22 23 23 24
21 21 21 21 22 22 22 22 22 22 22 22 22 21 21 21 22 22 22 23 22 22 22 23 23 23 23 23 23 23 23 23 23 23 23 23 23 22 22 22 22 22 22 23
21 22 23 23 22 22 22 22 22 22 22 21 20 20 20 20 21 21 21 22 22 22 22 22 22 22 22 23 23 23 23 23 23 23 23 23 23 22 22 22 22 22 22 22
20 21 22 22 22 22 22 22 22 22 21 21 20 20 20 21 21 21 20 21 21 22 22 22 22 22 21 22 22 22 22 22 22 23 23 22 22 21 21 21 22 22 22 22
20 20 20 20 21 21 21 21 21 21 20 20 21 22 22 22 21 21 21 21 20 21 21 21 21 21 21 21 22 22 21 21 21 21 21 21 21 21 21 21 21 21 21 22
17 17 18 19 20 20 20 20 20 21 21 21 22 23 22 22 22 22 22 22 22 22 21 21 21 21 21 21 21 20 20 20 20 19 19 20 20 21 21 21 21 21 21 21
16 17 17 18 19 19 19 20 21 22 22 21 21 21 22 22 22 21 22 22 22 22 22 21 21 21 21 20 20 19 18 18 18 18 18 18 19 19 20 20 20 20 20 21
16 16 17 18 19 19 19 20 20 20 21 21 22 21 21 21 21 21 21 21 21 21 21 21 21 20 20 20 19 19 18 18 19 18 18 18 17 18 19 19 19 20 20 20
16 17 17 18 18 19 20 19 20 19 19 20 20 21 21 21 21 20 20 19 19 19 20 20 19 19 19 19 19 19 19 19 18 18 18 18 18 18 18 19 20 20 19 19
17 16 16 16 17 18 18 18 18 17 18 18 18 19 19 19 19 20 19 19 19 19 19 19 18 18 18 19 19 19 19 18 18 18 18 18 18 19 19 19 19 19 19 19
15 15 14 14 15 16 16 16 16 16 16 16 17 18 18 18 19 19 19 19 18 18 18 18 18 18 18 18 18 17 17 17 17 18 18 18 18 18 18 18 18 17 17 17
14 14 13 13 14 14 15 15 15 15 15 15 16 17 17 18 18 19 19 19 18 18 18 18 17 18 19 18 17 17 17 17 17 18 18 18 18 18 18 18 17 17 17 17
13 13 12 12 12 13 13 13 14 15 16 16 16 16 17 18 18 19 18 18 18 18 18 18 18 18 18 18 18 18 18 17 17 17 17 17 17 18 18 18 18 18 18 19
14 13 13 13 12 13 13 13 14 14 15 16 16 17 17 17 17 17 17 17 17 17 17 17 17 17 17 18 18 18 18 18 18 18 18 18 18 19 19 19 20 20 21 21
Wind_Direction
246 245 245 250 250 247 251 257 261 259 259 258 263 262 267 273 274 272 272 272 271 271 272 273 270 266 268 269 272 275 278 279 282 282 282 281 282 283 283 284 285 286 287 288
246 245 248 249 249 253 255 258 260 262 259 256 261 261 264 269 270 270 271 272 270 269 272 275 273 271 273 272 274 277 281 279 279 280 280 279 281 282 283 282 283 285 285 287
248 244 246 247 247 250 250 252 255 258 257 256 261 265 266 268 267 268 270 272 271 270 273 274 273 274 272 271 272 274 275 277 278 282 283 283 282 283 284 283 283 284 284 286
248 244 245 246 247 250 250 250 252 254 253 252 257 262 263 267 271 269 270 272 273 274 274 273 275 275 271 272 274 275 275 279 278 282 285 284 283 284 285 284 284 284 284 286
246 246 247 247 248 251 254 253 252 252 254 257 258 261 262 264 267 268 269 272 273 274 274 275 275 276 274 275 277 277 279 280 279 280 283 284 283 284 284 284 284 284 283 284
243 244 245 247 248 251 254 257 256 256 255 256 256 260 263 264 264 265 267 269 272 274 272 271 274 278 276 276 278 278 279 281 280 282 282 282 282 281 283 285 285 284 284 285
242 244 247 248 251 250 251 256 257 256 254 257 257 259 262 263 262 263 264 266 269 271 271 272 276 277 278 279 278 278 279 279 280 280 282 283 282 283 282 283 285 284 284 285
242 245 245 249 253 251 251 253 255 254 255 256 258 259 260 261 261 261 262 265 266 268 270 271 273 274 276 277 277 278 279 279 279 279 281 283 283 285 284 285 285 285 284 285
244 247 248 250 252 253 254 254 256 256 255 255 257 259 261 261 261 262 263 265 266 268 269 270 270 271 272 273 275 277 278 278 277 277 277 279 281 282 283 285 286 286 286 287
248 249 252 252 254 255 257 257 256 256 255 255 257 260 262 260 261 262 263 264 265 265 267 268 270 269 269 271 273 275 277 277 277 275 274 277 281 281 282 283 285 286 287 288
251 250 252 256 255 256 256 255 256 257 255 255 256 258 260 262 262 262 262 263 263 263 265 267 268 270 271 274 274 274 274 274 275 275 274 276 278 279 281 282 285 286 286 287
251 252 254 255 253 253 256 256 255 256 254 255 255 257 258 259 261 260 260 261 262 262 264 266 268 269 272 274 274 273 273 273 274 276 277 275 275 277 281 282 284 286 287 287
252 252 253 253 253 255 256 255 256 255 253 253 254 255 257 258 260 259 258 258 260 262 263 265 267 269 272 274 274 273 273 273 274 277 278 277 277 277 280 281 282 283 285 287
253 254 252 253 253 253 255 255 256 256 252 253 254 255 256 258 259 257 256 257 260 262 264 265 267 269 272 273 273 273 274 274 277 279 279 278 278 278 279 281 282 283 284 285
251 251 252 254 252 253 254 254 253 253 254 256 255 256 258 259 259 257 256 258 261 264 266 266 267 270 272 275 275 274 275 275 277 279 280 279 279 280 281 282 283 284 285 286
253 253 255 254 254 256 254 253 253 253 254 256 257 259 259 258 260 260 259 261 263 264 265 267 269 272 275 277 277 276 275 276 278 280 281 280 279 280 281 282 284 285 286 287
255 255 255 255 255 255 255 255 254 253 255 257 260 261 260 259 259 261 262 263 263 265 266 269 271 273 275 277 279 279 277 277 278 279 280 279 279 280 281 282 284 286 286 287
254 254 255 255 257 255 253 253 253 254 253 257 262 263 263 261 259 260 262 263 265 267 268 269 271 273 276 278 279 279 277 278 279 280 279 277 278 281 282 282 283 285 285 285
256 256 258 259 258 257 255 253 252 252 254 258 261 263 262 261 262 262 262 262 264 267 269 271 272 274 276 278 278 278 277 277 276 278 280 280 279 280 283 284 283 285 286 286
253 254 257 258 258 257 256 256 256 257 259 260 261 262 263 263 263 265 264 265 266 266 266 268 270 272 274 275 275 275 274 276 277 277 280 282 281 281 283 284 284 284 285 285
256 258 259 259 259 259 259 261 262 262 261 260 260 262 264 262 263 266 267 267 265 264 265 267 269 270 271 273 272 272 271 274 277 279 280 282 282 282 283 283 285 286 286 286
262 263 263 262 260 259 260 262 262 260 260 260 260 261 262 263 265 267 268 268 267 266 267 267 268 268 269 269 270 270 270 272 274 276 278 280 282 284 283 283 283 286 288 290
266 268 268 266 262 260 260 262 261 260 259 258 259 258 258 262 264 266 268 267 266 266 267 267 268 268 268 269 269 269 269 269 270 272 274 277 281 284 285 286 287 288 289 291
267 268 268 267 265 263 262 261 262 259 255 254 256 258 259 261 263 265 267 266 265 265 266 267 267 267 268 268 268 268 269 270 271 271 274 278 281 282 283 284 285 287 289 292
268 267 266 266 266 265 265 262 258 255 253 254 257 260 261 262 264 264 264 264 265 266 266 266 266 267 268 267 266 267 269 270 271 273 274 276 278 279 280 282 283 285 288 290
265 264 266 266 265 265 263 260 257 256 257 258 260 262 264 264 264 263 263 263 264 266 265 265 267 268 267 266 265 266 267 268 270 271 273 274 276 279 280 280 282 284 287 290
265 265 267 268 268 267 265 267 267 265 264 265 263 262 263 264 264 264 263 263 265 266 266 266 267 268 267 266 266 266 268 271 271 271 273 274 275 277 279 279 281 283 287 290
Height
5782 5784 5786 5788 5788 5789 5790 5791 5792 5793 5793 5792 5793 5793 5793 5792 5792 5792 5792 5793 5794 5794 5795 5794 5794 5794 5795 5796 5796 5796 5796 5795 5795 5795 5795 5795 5795 5795 5795 5794 5794 5794 5793 5793
5775 5778 5780 5782 5783 5784 5785 5786 5787 5787 5787 5787 5788 5788 5789 5788 5789 5788 5788 5789 5790 5791 5791 5791 5790 5791 5792 5792 5792 5792 5792 5792 5792 5792 5791 5791 5791 5791 5791 5791 5790 5790 5789 5789
5769 5772 5773 5775 5778 5779 5779 5780 5781 5782 5783 5783 5783 5784 5784 5783 5784 5785 5784 5785 5786 5787 5787 5787 5787 5786 5788 5788 5788 5788 5788 5787 5788 5787 5787 5787 5787 5787 5787 5786 5786 5785 5785 5784
5763 5766 5767 5771 5772 5773 5773 5774 5776 5776 5777 5777 5778 5779 5779 5779 5779 5780 5781 5781 5782 5782 5782 5783 5783 5783 5784 5784 5784 5784 5783 5783 5783 5783 5783 5782 5782 5782 5782 5781 5781 5781 5780 5780
5757 5759 5760 5763 5765 5767 5768 5768 5769 5770 5771 5772 5774 5774 5774 5775 5775 5776 5777 5777 5778 5778 5778 5778 5778 5779 5779 5779 5780 5779 5779 5779 5779 5779 5778 5778 5778 5777 5777 5776 5776 5776 5775 5774
5751 5753 5755 5756 5758 5760 5763 5761 5763 5763 5765 5767 5768 5769 5770 5770 5771 5771 5772 5772 5773 5773 5773 5773 5774 5774 5774 5775 5775 5775 5774 5774 5774 5774 5774 5773 5773 5772 5772 5771 5771 5770 5769 5769
5744 5746 5748 5750 5752 5754 5756 5757 5757 5758 5759 5760 5762 5764 5764 5765 5765 5766 5767 5768 5768 5768 5768 5769 5769 5770 5770 5770 5770 5770 5770 5770 5769 5769 5768 5768 5768 5767 5767 5766 5766 5765 5764 5763
5738 5740 5744 5744 5745 5748 5749 5749 5750 5751 5753 5755 5756 5757 5758 5758 5759 5760 5761 5762 5763 5763 5764 5764 5764 5765 5765 5765 5765 5765 5765 5764 5764 5763 5763 5763 5762 5762 5761 5760 5760 5759 5758 5757
5733 5735 5735 5737 5739 5740 5741 5742 5744 5745 5747 5748 5749 5750 5751 5752 5753 5754 5755 5756 5757 5758 5758 5759 5759 5759 5759 5760 5759 5759 5759 5759 5758 5758 5758 5757 5757 5756 5755 5755 5754 5753 5752 5751
5726 5727 5729 5731 5732 5734 5735 5736 5738 5739 5740 5741 5742 5743 5744 5745 5747 5748 5749 5750 5750 5751 5752 5752 5753 5753 5754 5753 5754 5754 5753 5753 5753 5752 5752 5751 5751 5750 5750 5749 5748 5747 5747 5746
5720 5721 5723 5725 5726 5727 5728 5729 5731 5732 5733 5734 5735 5736 5737 5738 5740 5741 5741 5743 5744 5745 5745 5746 5747 5747 5747 5747 5747 5747 5747 5747 5747 5747 5746 5745 5745 5744 5744 5743 5742 5741 5740 5739
5715 5715 5717 5718 5719 5721 5722 5722 5724 5725 5726 5727 5728 5729 5731 5732 5733 5733 5734 5735 5737 5738 5739 5740 5740 5741 5741 5741 5741 5741 5741 5741 5741 5740 5740 5739 5739 5738 5737 5736 5735 5734 5733 5732
5708 5709 5711 5712 5713 5714 5716 5716 5717 5718 5719 5720 5721 5723 5724 5725 5726 5727 5727 5729 5730 5731 5732 5733 5734 5734 5735 5735 5735 5735 5734 5734 5734 5733 5733 5732 5732 5731 5730 5729 5728 5727 5726 5725
5702 5704 5705 5706 5707 5708 5710 5710 5711 5711 5712 5714 5715 5716 5718 5718 5719 5720 5721 5722 5724 5725 5726 5727 5727 5728 5728 5728 5728 5728 5727 5727 5727 5726 5726 5725 5724 5724 5723 5722 5721 5720 5720 5718
5697 5698 5699 5700 5701 5702 5704 5704 5705 5706 5707 5708 5709 5710 5711 5712 5713 5714 5715 5716 5717 5718 5719 5720 5721 5721 5721 5721 5720 5720 5720 5720 5720 5719 5718 5718 5717 5716 5716 5715 5714 5713 5712 5711
5691 5692 5694 5695 5696 5697 5698 5699 5700 5701 5701 5702 5703 5704 5705 5706 5707 5708 5709 5710 5711 5712 5713 5713 5714 5714 5714 5713 5713 5713 5713 5712 5712 5712 5711 5711 5710 5709 5708 5708 5707 5706 5705 5704
5686 5686 5688 5689 5690 5691 5692 5693 5694 5695 5696 5697 5698 5699 5699 5700 5701 5702 5703 5704 5704 5705 5706 5706 5707 5707 5707 5706 5706 5706 5705 5705 5705 5704 5704 5703 5703 5702 5701 5701 5700 5699 5698 5697
5680 5681 5682 5683 5685 5685 5687 5687 5689 5690 5691 5691 5692 5693 5694 5694 5695 5696 5697 5697 5698 5698 5699 5699 5700 5700 5700 5699 5699 5699 5698 5698 5698 5697 5697 5696 5696 5695 5695 5694 5693 5692 5691 5690
5675 5676 5677 5678 5679 5680 5681 5682 5683 5684 5685 5686 5686 5687 5687 5688 5689 5689 5690 5690 5691 5692 5692 5693 5693 5693 5693 5693 5692 5692 5692 5691 5691 5691 5690 5690 5689 5688 5688 5687 5686 5685 5684 5683
5671 5672 5673 5674 5674 5675 5676 5677 5677 5678 5679 5680 5680 5681 5681 5682 5682 5683 5683 5684 5685 5685 5685 5686 5686 5686 5686 5686 5686 5686 5686 5685 5685 5685 5684 5683 5683 5681 5681 5680 5680 5679 5678 5676
5667 5667 5668 5668 5669 5670 5670 5671 5671 5672 5673 5673 5674 5674 5675 5675 5676 5676 5676 5677 5678 5678 5678 5679 5679 5680 5680 5679 5679 5679 5680 5679 5679 5679 5678 5678 5677 5676 5675 5674 5674 5673 5671 5670
5662 5663 5663 5663 5664 5664 5665 5665 5666 5666 5667 5667 5668 5668 5668 5669 5669 5670 5670 5671 5671 5671 5672 5672 5673 5673 5673 5673 5673 5673 5673 5673 5673 5673 5673 5672 5672 5671 5670 5669 5668 5667 5666 5664
5658 5658 5658 5659 5659 5659 5660 5660 5660 5661 5661 5662 5662 5662 5663 5663 5663 5664 5664 5665 5665 5666 5666 5666 5666 5667 5667 5667 5667 5667 5667 5667 5667 5667 5667 5667 5666 5666 5665 5664 5663 5662 5661 5659
5654 5654 5654 5654 5654 5654 5655 5655 5655 5655 5656 5656 5657 5657 5658 5658 5658 5658 5659 5659 5659 5660 5660 5660 5661 5661 5661 5661 5662 5662 5662 5662 5662 5662 5661 5661 5661 5660 5659 5659 5658 5657 5656 5655
5649 5649 5649 5650 5650 5650 5650 5650 5650 5650 5651 5651 5652 5652 5652 5652 5653 5653 5653 5653 5654 5654 5654 5655 5655 5655 5655 5656 5656 5656 5656 5656 5656 5656 5656 5656 5655 5655 5654 5653 5653 5652 5650 5649
5645 5645 5645 5646 5646 5646 5646 5646 5646 5646 5646 5647 5647 5647 5647 5647 5647 5647 5648 5648 5648 5648 5649 5649 5649 5649 5650 5650 5650 5650 5651 5651 5651 5651 5651 5650 5650 5649 5649 5648 5647 5646 5645 5644
5641 5641 5641 5641 5642 5642 5642 5642 5642 5642 5642 5642 5642 5642 5642 5642 5642 5642 5642 5643 5643 5643 5643 5643 5644 5644 5644 5644 5644 5644 5645 5645 5645 5645 5645 5645 5644 5643 5643 5642 5641 5640 5639 5638